McAlester, OK

5:28 PM CST on November 21, 2019 (GMT -0600)
McAlester Regional

Weather History for KMLC - August, 2019

Change the Weather History Date:

Friday, August 9, 2019

  Actual Average Record
Temperature  
Mean Temperature 80 °F -  
Max Temperature 84 °F 94 °F 107 °F (1956)
Min Temperature 77 °F 70 °F 51 °F (1989)
Cooling Degree Days 16    
Growing Degree Days 30 (Base 50)    
Moisture  
Dew Point 76 °F    
Average Humidity 87    
Maximum Humidity 94    
Minimum Humidity 74    
Precipitation  
Precipitation 0.11 in - - ()
Sea Level Pressure  
Sea Level Pressure 29.92 in    
Wind  
Wind Speed 2 mph (ENE)    
Max Wind Speed 9 mph    
Max Gust Speed -    
Visibility 9 miles    
Events Rain , Thunderstorm    
Averages and records for this station are not official NWS values.
T = Trace of Precipitation, MM = Missing Value Source: NWS Daily Summary

Daily Weather History Graph

Daily Weather History Graph

Search for Another Location

Airport or City:

Astronomy

Aug. 09, 2019 Rise Set
Actual Time 6:38 AM CDT 8:18 PM CDT
Civil Twilight 6:11 AM CDT 8:45 PM CDT
Nautical Twilight 5:38 AM CDT 9:17 PM CDT
Astronomical Twilight 5:04 AM CDT 9:52 PM CDT
Moon 3:57 PM CDT (8/9) 1:37 AM CDT (8/9)
Length of Visible Light 14h 33m
Length of Day
13h 39m
Waxing Gibbous, 70% of the Moon is Illuminated
Aug 9
Waxing Gibbous
Aug 15
Full
Aug 23
Last Quarter
Aug 30
New
Sep 5
First Quarter

Hourly Weather History & Observations

Time (CDT) Temp. Heat Index Dew Point Humidity Pressure Visibility Wind Dir Wind Speed Gust Speed Precip Events Conditions
12:53 AM 79.0 °F - 75.9 °F 90% 29.89 in 9.0 mi Calm Calm - N/A   Overcast
1:53 AM 80.1 °F 85.4 °F 75.9 °F 87% 29.90 in 10.0 mi NNE 3.5 mph - N/A   Overcast
2:53 AM 79.0 °F - 77.0 °F 94% 29.88 in 8.0 mi Calm Calm - 0.02 in   Overcast
3:53 AM 79.0 °F - 75.9 °F 90% 29.87 in 10.0 mi Calm Calm - 0.00 in   Partly Cloudy
4:53 AM 78.1 °F - 75.9 °F 93% 29.87 in 8.0 mi Calm Calm - N/A   Clear
5:53 AM 78.1 °F - 75.9 °F 93% 29.88 in 8.0 mi Calm Calm - N/A   Mostly Cloudy
6:53 AM 78.1 °F - 75.9 °F 93% 29.90 in 7.0 mi ENE 3.5 mph - N/A   Mostly Cloudy
7:53 AM 78.1 °F - 75.0 °F 90% 29.93 in 10.0 mi Calm Calm - 0.02 in   Partly Cloudy
8:53 AM 79.0 °F - 75.9 °F 90% 29.94 in 10.0 mi ESE 4.6 mph - N/A   Partly Cloudy
9:53 AM 81.0 °F 87.3 °F 75.9 °F 85% 29.95 in 10.0 mi East 4.6 mph - N/A   Scattered Clouds
10:53 AM 82.9 °F 90.8 °F 75.9 °F 79% 29.96 in 10.0 mi Calm Calm - N/A   Partly Cloudy
11:53 AM 82.9 °F 91.8 °F 77.0 °F 82% 29.98 in 10.0 mi North 8.1 mph - 0.00 in   Overcast
12:53 PM 81.0 °F 87.3 °F 75.9 °F 85% 30.00 in 10.0 mi NNW 9.2 mph - N/A Thunderstorm Overcast
1:13 PM 78.1 °F - 75.0 °F 90% 30.01 in 2.5 mi Calm Calm - 0.03 in Rain , Thunderstorm Light Rain
1:20 PM 78.1 °F - 75.0 °F 90% 30.00 in 4.0 mi Calm Calm - 0.04 in Rain , Thunderstorm Light Rain
1:42 PM 77.0 °F - 75.0 °F 94% 29.96 in 5.0 mi SE 6.9 mph - 0.05 in Rain Light Rain
1:53 PM 77.0 °F - 75.0 °F 94% 29.92 in 7.0 mi ESE 6.9 mph - 0.06 in Rain Light Rain
2:53 PM 78.1 °F - 75.0 °F 90% 29.89 in 10.0 mi ESE 6.9 mph - 0.01 in   Partly Cloudy
3:53 PM 81.0 °F 87.3 °F 75.9 °F 85% 29.88 in 10.0 mi Calm Calm - N/A   Clear
4:53 PM 82.0 °F 88.6 °F 75.0 °F 79% 29.89 in 10.0 mi Calm Calm - N/A   Clear
5:53 PM 84.0 °F 91.9 °F 75.0 °F 74% 29.88 in 10.0 mi Calm Calm - N/A   Clear
6:53 PM 84.0 °F 92.6 °F 75.9 °F 76% 29.87 in 10.0 mi East 3.5 mph - N/A   Clear
7:53 PM 82.9 °F 91.8 °F 77.0 °F 82% 29.88 in 10.0 mi East 3.5 mph - N/A   Clear
8:53 PM 80.1 °F 85.4 °F 75.9 °F 87% 29.88 in 10.0 mi Variable 3.5 mph - N/A   Clear
9:53 PM 79.0 °F - 75.9 °F 90% 29.90 in 10.0 mi ENE 3.5 mph - N/A   Clear
10:53 PM 79.0 °F - 75.9 °F 90% 29.90 in 10.0 mi Variable 3.5 mph - N/A   Clear
11:53 PM 78.1 °F - 75.0 °F 90% 29.90 in 10.0 mi East 4.6 mph - N/A   Clear